Owatonna, Minnesota, United States (55060)
Lat: 44.08N, Lon: 93.23W
Wx Zone: MNZ085
Local Info
Past Weather Observations for Today

NOTE: This archive is for the closest National Weather Service station to Owatonna. Information may differ from the station used for current weather conditions.

Click here for Long-term Archive

Time Weather Temperature Dewpoint Humidity Pressure Winds Precip Visibility
17:35
Clear
30°F / -1°C 18°F / -8°C 59% 30.48 in
(1032 mb)
Calm - 10SM
17:15
Clear
32°F / 0°C 16°F / -9°C 51% 30.48 in
(1032 mb)
N 3.5 mph
(N 6 kph)
- 10SM
16:55
Clear
34°F / 1°C 18°F / -8°C 51% 30.48 in
(1032 mb)
N 5.8 mph
(N 9 kph)
- 10SM
16:35
Clear
36°F / 2°C 16°F / -9°C 44% 30.48 in
(1032 mb)
N 3.5 mph
(N 6 kph)
- 10SM
16:15
Clear
37°F / 3°C 16°F / -9°C 41% 30.48 in
(1032 mb)
NNW 6.9 mph
(NNW 11 kph)
- 10SM
15:55
Clear
37°F / 3°C 16°F / -9°C 41% 30.48 in
(1032 mb)
N 9.2 mph
(N 15 kph)
- 10SM
15:35
Clear
37°F / 3°C 16°F / -9°C 41% 30.48 in
(1032 mb)
N 10.4 mph
(N 17 kph)
- 10SM
15:15
Clear
37°F / 3°C 16°F / -9°C 41% 30.48 in
(1032 mb)
NNW 8.1 mph
(NNW 13 kph)
- 10SM
14:55
Clear
39°F / 4°C 16°F / -9°C 39% 30.48 in
(1032 mb)
N 9.2 mph
(N 15 kph)
- 10SM
14:35
Clear
39°F / 4°C 16°F / -9°C 39% 30.48 in
(1032 mb)
N 8.1 mph
(N 13 kph)
- 10SM
14:15
Clear
37°F / 3°C 16°F / -9°C 41% 30.48 in
(1032 mb)
NNW 6.9 mph
(NNW 11 kph)
- 10SM
13:55
Clear
37°F / 3°C 16°F / -9°C 41% 30.48 in
(1032 mb)
NNW 9.2 mph
(NNW 15 kph)
- 10SM
13:35
Clear
37°F / 3°C 16°F / -9°C 41% 30.48 in
(1032 mb)
NNE 10.4 mph
(NNE 17 kph)
- 10SM
13:15
Clear
37°F / 3°C 16°F / -9°C 41% 30.51 in
(1033 mb)
NNW 5.8 mph
(NNW 9 kph)
- 10SM
12:55
Clear
37°F / 3°C 18°F / -8°C 45% 30.51 in
(1033 mb)
N 13.8 mph
(N 22 kph)
- 10SM
12:35
Clear
37°F / 3°C 18°F / -8°C 45% 30.51 in
(1033 mb)
N 11.5 mph
(N 19 kph)
- 10SM
12:15
Clear
36°F / 2°C 18°F / -8°C 48% 30.51 in
(1033 mb)
NNW 8.1 mph
(NNW 13 kph)
- 10SM
11:55
Clear
36°F / 2°C 18°F / -8°C 48% 30.54 in
(1034 mb)
N 15 mph
(N 24 kph)
- 10SM
11:35
Clear
36°F / 2°C 18°F / -8°C 48% 30.54 in
(1034 mb)
NNW 12.7 mph
(NNW 20 kph)
- 10SM
11:15
Clear
36°F / 2°C 18°F / -8°C 48% 30.54 in
(1034 mb)
N 9.2 mph
(N 15 kph)
- 10SM
10:55
Clear
34°F / 1°C 18°F / -8°C 51% 30.54 in
(1034 mb)
N 15 mph
(N 24 kph)
- 10SM
10:35
Clear
34°F / 1°C 18°F / -8°C 51% 30.54 in
(1034 mb)
N 15 mph
(N 24 kph)
- 10SM
10:15
Clear
34°F / 1°C 18°F / -8°C 51% 30.54 in
(1034 mb)
N 13.8 mph
(N 22 kph)
- 10SM
09:55
Clear
34°F / 1°C 18°F / -8°C 51% 30.54 in
(1034 mb)
N 13.8 mph
(N 22 kph)
- 10SM
09:35
Clear
32°F / 0°C 18°F / -8°C 55% 30.54 in
(1034 mb)
N 13.8 mph
(N 22 kph)
- 10SM
09:15
Clear
30°F / -1°C 18°F / -8°C 59% 30.51 in
(1033 mb)
N 13.8 mph
(N 22 kph)
- 10SM
08:55
Clear
30°F / -1°C 18°F / -8°C 59% 30.51 in
(1033 mb)
NNE 17.3 mph
(NNE 28 kph)
-
08:35
Clear
28°F / -2°C 18°F / -8°C 64% 30.51 in
(1033 mb)
N 17.3 mph
(N 28 kph)
- 10SM
08:15
Clear
28°F / -2°C 18°F / -8°C 64% 30.51 in
(1033 mb)
N 17.3 mph
(N 28 kph)
- 10SM
07:55
Clear
27°F / -3°C 18°F / -8°C 69% 30.51 in
(1033 mb)
N 12.7 mph
(N 20 kph)
- 10SM
07:35
Clear
27°F / -3°C 18°F / -8°C 69% 30.51 in
(1033 mb)
N 11.5 mph
(N 19 kph)
- 10SM
07:15
Clear
25°F / -4°C 18°F / -8°C 74% 30.51 in
(1033 mb)
NNW 10.4 mph
(NNW 17 kph)
- 10SM
06:55
Clear
23°F / -5°C 16°F / -9°C 74% 30.48 in
(1032 mb)
NNW 6.9 mph
(NNW 11 kph)
- 10SM
06:35
Clear
25°F / -4°C 18°F / -8°C 74% 30.45 in
(1031 mb)
NNW 8.1 mph
(NNW 13 kph)
- 10SM
06:15
Clear
25°F / -4°C 16°F / -9°C 69% 30.45 in
(1031 mb)
N 9.2 mph
(N 15 kph)
- 10SM
05:55
Clear
25°F / -4°C 18°F / -8°C 74% 30.45 in
(1031 mb)
NNW 10.4 mph
(NNW 17 kph)
- 10SM
05:35
Clear
25°F / -4°C 18°F / -8°C 74% 30.45 in
(1031 mb)
NNW 9.2 mph
(NNW 15 kph)
- 10SM
05:15
Clear
27°F / -3°C 18°F / -8°C 69% 30.45 in
(1031 mb)
N 11.5 mph
(N 19 kph)
- 10SM
04:55
Clear
25°F / -4°C 18°F / -8°C 74% 30.45 in
(1031 mb)
NNW 10.4 mph
(NNW 17 kph)
- 10SM
04:35
Clear
27°F / -3°C 18°F / -8°C 69% 30.45 in
(1031 mb)
NNW 9.2 mph
(NNW 15 kph)
- 10SM
04:15
Clear
27°F / -3°C 18°F / -8°C 69% 30.45 in
(1031 mb)
NNW 12.7 mph
(NNW 20 kph)
- 10SM
03:55
Clear
27°F / -3°C 16°F / -9°C 64% 30.42 in
(1030 mb)
N 13.8 mph
(N 22 kph)
- 10SM
03:35
Clear
27°F / -3°C 16°F / -9°C 64% 30.42 in
(1030 mb)
N 15 mph
(N 24 kph)
- 10SM
03:15
Clear
27°F / -3°C 16°F / -9°C 64% 30.42 in
(1030 mb)
N 13.8 mph
(N 22 kph)
- 10SM
02:55
Clear
28°F / -2°C 16°F / -9°C 59% 30.42 in
(1030 mb)
NNW 13.8 mph
(NNW 22 kph)
- 10SM
02:35
Clear
28°F / -2°C 16°F / -9°C 59% 30.42 in
(1030 mb)
N 17.3 mph
(N 28 kph)
- 10SM
02:15
Clear
28°F / -2°C 16°F / -9°C 59% 30.42 in
(1030 mb)
NNW 13.8 mph
(NNW 22 kph)
- 10SM
01:55
Clear
28°F / -2°C 14°F / -10°C 55% 30.39 in
(1029 mb)
NNW 13.8 mph
(NNW 22 kph)
- 10SM
01:35
Clear
28°F / -2°C 14°F / -10°C 55% 30.39 in
(1029 mb)
NNW 13.8 mph
(NNW 22 kph)
- 10SM
01:15
Clear
28°F / -2°C 12°F / -11°C 51% 30.39 in
(1029 mb)
NNW 13.8 mph
(NNW 22 kph)
- 10SM
00:55
Clear
30°F / -1°C 12°F / -11°C 47% 30.36 in
(1028 mb)
N 16.1 mph
(N 26 kph)
- 10SM
00:35
Clear
30°F / -1°C 12°F / -11°C 47% 30.36 in
(1028 mb)
NNW 15 mph
(NNW 24 kph)
- 10SM
00:15
Clear
30°F / -1°C 12°F / -11°C 47% 30.36 in
(1028 mb)
NNW 18.4 mph
(NNW 30 kph)
- 10SM
Time Weather Temperature Dewpoint Humidity Pressure Winds Precip Visibility


Weather for websites

WeatherForYou.com, LLC is not responsible for any damages or problems caused by this service. Current weather conditions are obtained from the closest station including government and personal stations which may have varying degrees of accuracy. Weather forecasts are derived from the NOAA NDFD. Like all things, this site belongs to Jesus Christ... He just trusts me to maintain it. If you have any questions or comments email webmaster@weatherforyou.com

Copyright © 2014, WeatherForYou.com LLC. All rights reserved.